Location: Brantley
(31.5822°N, 86.2569°W)
Time: 12:09:49
(UTC+00:00)

Courier 1B Rocket - Pass Details

Date: 18 February 2026
Orbit: 920 x 1201 km, 28.2° (Epoch: 17 March)

Event Time Altitude Azimuth Distance (km) Brightness Sun altitude
Rises 07:38:39 0° 262° (W) 3,809 - -59.5°
Reaches altitude 10° 07:42:57 10° 237° (WSW) 2,919 - -58.8°
Maximum altitude 07:46:15 14° 210° (SSW) 2,700 - -58.2°
Drops below altitude 10° 07:49:38 10° 182° (S) 3,008 - -57.6°
Sets 07:54:14 0° 158° (SSE) 4,019 - -56.8°
